This demonstration page uses our WeatherBlox Daily Observations layout. Learn more.

Hourly Observations for November 18, 2016

Temp ( °F °C ) Dew Point ( °F °C ) Humidity (%) Winds ( mph kmh ) Pressure ( in mb ) Visibility ( mi km ) Precip ( " mm )
12:06 am 00:06 Cloudy 45 7 39 4 81 81 NNE 14 22 29.65 1004 10 16.0934 0 0
12:54 am 00:54 Cloudy 44 6.7 39 3.9 83 83 N 15 24 29.67 1005 10 16.0934 0 0
1:54 am 01:54 Cloudy 43 6.1 39 3.9 86 86 N 14 22 29.65 1004 10 16.0934 0 0
2:54 am 02:54 Cloudy with Light Rain 42 5.6 40 4.4 92 92 WNW 18 30 29.73 1007 4 6.43736 0.02 0.508
3:07 am 03:07 Cloudy with Light Rain 42 5.6 39 3.9 89 89 WNW 22 35 29.77 1008 8 12.87472 0 0.0254
3:24 am 03:24 Cloudy with Light Rain 41 5 37 3 87 87 WNW 20 31 29.77 1008 10 16.0934 0 0
3:47 am 03:47 Cloudy with Light Rain 38 3.3 35 1.7 89 89 NW 23 37 29.77 1008 10 16.0934 0 0.0254
3:54 am 03:54 Cloudy 37 2.8 35 1.7 93 93 NW 21 33 29.76 1008 10 16.0934 0.01 0.254
4:16 am 04:16 Cloudy 37 2.8 34 1.1 89 89 NW 22 35 29.77 1008 10 16.0934 0 0
4:54 am 04:54 Cloudy 37 2.8 33 0.6 86 86 NW 22 35 29.78 1009 10 16.0934 0 0
5:54 am 05:54 Cloudy 36 2.2 31 -0.6 82 82 NW 26 43 29.83 1010 10 16.0934 0 0
6:54 am 06:54 Cloudy 36 2.2 30 -1.1 79 79 NW 25 41 29.89 1012 10 16.0934 0 0
7:10 am 07:10 Cloudy 36 2 28 -2 75 75 NW 25 41 29.94 1014 10 16.0934 0 0
7:54 am 07:54 Cloudy 36 2.2 29 -1.7 76 76 NW 24 39 29.95 1014 10 16.0934 0 0
8:54 am 08:54 Cloudy 36 2.2 29 -1.7 76 76 NW 26 43 29.97 1015 10 16.0934 0 0
9:54 am 09:54 Cloudy 37 2.8 28 -2.2 70 70 NW 33 54 30.04 1017 10 16.0934 0 0.0254
10:54 am 10:54 Cloudy 38 3.3 29 -1.7 70 70 NW 28 44 30.08 1019 10 16.0934 0 0
11:54 am 11:54 Cloudy 39 3.9 29 -1.7 67 67 NW 29 46 30.11 1020 10 16.0934 0 0
12:54 pm 12:54 Cloudy 40 4.4 29 -1.7 65 65 NW 35 56 30.15 1021 10 16.0934 0 0
1:54 pm 13:54 Cloudy 40 4.4 27 -2.8 60 60 NW 33 54 30.19 1022 10 16.0934 0 0
2:10 pm 14:10 Cloudy 39 4 27 -3 61 61 NW 29 46 30.24 1024 10 16.0934 0 0
2:54 pm 14:54 Mostly Cloudy 39 3.9 25 -3.9 57 57 NW 37 59 30.24 1024 10 16.0934 0 0
3:54 pm 15:54 Mostly Cloudy 39 3.9 25 -3.9 57 57 NW 26 43 30.29 1026 10 16.0934 0 0
4:54 pm 16:54 Cloudy 37 2.8 25 -3.9 62 62 NW 24 39 30.34 1027 10 16.0934 0 0
5:54 pm 17:54 Partly Cloudy 35 1.7 24 -4.4 64 64 NW 18 30 30.38 1029 10 16.0934 0 0
6:54 pm 18:54 Clear 33 0.6 23 -5 66 66 NW 17 28 30.4 1030 10 16.0934 0 0
7:54 pm 19:54 Cloudy 34 1.1 23 -5 64 64 NW 20 31 30.42 1030 10 16.0934 0 0
8:54 pm 20:54 Cloudy 35 1.7 23 -5 61 61 NNW 20 31 30.45 1031 10 16.0934 0 0
9:54 pm 21:54 Partly Cloudy 35 1.7 23 -5 61 61 NNW 16 26 30.47 1032 10 16.0934 0 0
10:54 pm 22:54 Clear 33 0.6 22 -5.6 64 64 NW 13 20 30.49 1032 10 16.0934 0 0
11:54 pm 23:54 Clear 31 -0.6 23 -5 72 72 WNW 9 15 30.51 1033 10 16.0934 0 0

Powered by AerisWeather